TimeEST,TemperatureF,Dew PointF,Humidity,Sea Level PressureIn,VisibilityMPH,Wind Direction,Wind SpeedMPH,Gust SpeedMPH,PrecipitationIn,Events,Conditions,WindDirDegrees,DateUTC
12:51 AM,32.0,23.0,69,30.50,10.0,NNW,3.5,-,N/A,,Clear,330,2012-11-15 05:51:00
1:51 AM,29.1,22.1,75,30.51,10.0,Calm,Calm,-,N/A,,Clear,0,2012-11-15 06:51:00
2:51 AM,28.0,22.1,78,30.51,10.0,WNW,4.6,-,N/A,,Clear,300,2012-11-15 07:51:00
3:51 AM,27.1,22.1,81,30.49,10.0,NW,4.6,-,N/A,,Clear,310,2012-11-15 08:51:00
4:51 AM,28.0,22.1,78,30.48,10.0,NW,4.6,-,N/A,,Clear,310,2012-11-15 09:51:00
5:51 AM,28.0,21.0,75,30.50,10.0,NW,5.8,-,N/A,,Clear,310,2012-11-15 10:51:00
6:51 AM,27.1,22.1,81,30.49,10.0,NW,9.2,-,N/A,,Clear,320,2012-11-15 11:51:00
7:51 AM,32.0,23.0,69,30.51,10.0,NNW,5.8,-,N/A,,Clear,330,2012-11-15 12:51:00
8:51 AM,34.9,24.1,65,30.49,10.0,Calm,Calm,-,N/A,,Clear,0,2012-11-15 13:51:00
9:51 AM,36.9,25.2,63,30.47,10.0,North,5.8,-,N/A,,Clear,10,2012-11-15 14:51:00
10:51 AM,38.8,25.2,58,30.46,10.0,Variable,5.8,-,N/A,,Clear,0,2012-11-15 15:51:00
11:51 AM,39.9,25.2,56,30.42,10.0,Calm,Calm,-,N/A,,Clear,0,2012-11-15 16:51:00
12:51 PM,41.9,25.2,52,30.39,10.0,NNW,10.4,-,N/A,,Clear,330,2012-11-15 17:51:00
1:51 PM,41.9,25.2,52,30.37,10.0,North,3.5,-,N/A,,Clear,360,2012-11-15 18:51:00
2:51 PM,43.0,25.2,49,30.37,10.0,North,3.5,-,N/A,,Clear,360,2012-11-15 19:51:00
3:51 PM,41.9,25.2,52,30.37,10.0,Calm,Calm,-,N/A,,Clear,0,2012-11-15 20:51:00
4:51 PM,37.9,28.0,68,30.36,10.0,Calm,Calm,-,N/A,,Clear,0,2012-11-15 21:51:00
5:51 PM,36.0,28.0,73,30.36,10.0,Calm,Calm,-,N/A,,Clear,0,2012-11-15 22:51:00
6:51 PM,37.9,29.1,71,30.37,10.0,Calm,Calm,-,N/A,,Clear,0,2012-11-15 23:51:00
7:51 PM,34.9,30.0,82,30.36,10.0,Calm,Calm,-,N/A,,Clear,0,2012-11-16 00:51:00
8:51 PM,32.9,28.0,82,30.37,10.0,Calm,Calm,-,N/A,,Clear,0,2012-11-16 01:51:00
9:51 PM,32.0,27.1,82,30.35,10.0,Calm,Calm,-,N/A,,Clear,0,2012-11-16 02:51:00
10:51 PM,31.1,27.1,85,30.35,10.0,Calm,Calm,-,N/A,,Clear,0,2012-11-16 03:51:00
11:51 PM,31.1,26.1,82,30.34,10.0,Calm,Calm,-,N/A,,Clear,0,2012-11-16 04:51:00